Weather History for Jordan, MT

Change the Weather History Date:

Thursday, November 8, 2012

  Actual Average Record
Temperature  
Mean Temperature 34 °F 34 °F  
Max Temperature 38 °F 48 °F 77 °F (1999)
Min Temperature 30 °F 20 °F -9 °F (2000)
Degree Days  
Heating Degree Days 31 31  
Month to date heating degree days 177 236  
Since 1 July heating degree days 994 1209  
Cooling Degree Days 0 0  
Month to date cooling degree days 0 0  
Year to date cooling degree days 728 421  
Moisture  
Dew Point 28 °F    
Average Humidity 81    
Maximum Humidity 92    
Minimum Humidity 69    
Precipitation  
Precipitation 0.37 in 0.02 in 0.37 in (2012)
Month to date precipitation 0.56 0.15  
Year to date precipitation 7.51 12.17  
Snow  
Snow 0.00 in - - ()
Month to date snowfall 0.0  
Since 1 July snowfall 0.0  
Since 1 September snowfall 0.0  
Snow Depth 0.00 in    
Sea Level Pressure  
Sea Level Pressure 30.08 in    
Wind  
Wind Speed 11 mph (NE)    
Max Wind Speed 23 mph    
Max Gust Speed 30 mph    
T = Trace of Precipitation, MM = Missing Value Source: NWS Daily Summary

Daily Weather History Graph

Daily Weather History Graph

Search for Another Location

Airport:

Trip Planner

Search our weather history database for the weather conditions in past years. The results will help you decide how hot, cold, wet, or windy it might be!

Date:

Astronomy

Nov. 08, 2012 Rise Set
Actual Time 7:02 AM MST 4:40 PM MST
Civil Twilight 6:29 AM MST 5:12 PM MST
Nautical Twilight 5:53 AM MST 5:49 PM MST
Astronomical Twilight 5:17 AM MST 6:25 PM MST
Moon 12:37 AM MST (11/8) 1:43 PM MST (11/8)
Length of Visible Light 10h 42m
Length of Day
9h 37m
Waning Crescent, 32% of the Moon is Illuminated
Nov 8
Waning Crescent
Nov 13
New
Nov 20
First Quarter
Nov 28
Full
Dec 6
Last Quarter

Hourly Weather History & Observations

Time (MST) Temp. Windchill Dew Point Humidity Pressure Visibility Wind Dir Wind Speed Gust Speed Precip Events Conditions
12:48 AM 33.1 °F 28.7 °F 28.0 °F 82% 30.01 in - NW 4.6 mph - N/A   Unknown
1:48 AM 36.0 °F 30.3 °F 30.9 °F 82% 30.06 in - NNW 6.9 mph - N/A   Unknown
2:48 AM 34.0 °F 23.4 °F 28.0 °F 79% 30.06 in - NNW 17.3 mph - N/A   Unknown
3:48 AM 34.0 °F 26.0 °F 28.0 °F 79% 30.08 in - North 10.4 mph - N/A   Unknown
4:48 AM 34.0 °F 27.2 °F 27.0 °F 75% 30.10 in - North 8.1 mph - N/A   Unknown
5:48 AM 34.0 °F 26.0 °F 25.0 °F 70% 30.12 in - NNW 10.4 mph - N/A   Unknown
6:48 AM 33.1 °F 26.1 °F 26.1 °F 75% 30.12 in - NNW 8.1 mph - N/A   Unknown
7:48 AM 33.1 °F 25.5 °F 26.1 °F 75% 30.12 in - NNW 9.2 mph - N/A   Unknown
8:48 AM 34.0 °F 28.8 °F 27.0 °F 75% 30.15 in - NW 5.8 mph - N/A   Unknown
9:48 AM 35.1 °F - 26.1 °F 70% 30.15 in - Calm Calm - N/A   Unknown
10:48 AM 36.0 °F - 26.1 °F 67% 30.15 in - Calm Calm - N/A   Unknown
11:48 AM 36.0 °F 32.1 °F 27.0 °F 70% 30.12 in - NE 4.6 mph - N/A   Unknown
12:48 PM 34.0 °F 29.8 °F 30.0 °F 85% 30.11 in - ENE 4.6 mph - 0.01 in   Unknown
1:48 PM 32.0 °F 24.8 °F 30.9 °F 96% 30.09 in - East 8.1 mph - 0.09 in   Unknown
2:48 PM 32.0 °F 22.5 °F 30.9 °F 96% 30.07 in - East 12.7 mph - 0.10 in   Unknown
3:48 PM 32.0 °F 21.6 °F 30.0 °F 92% 30.06 in - ENE 15.0 mph - 0.07 in   Unknown
4:48 PM 30.9 °F 19.8 °F 28.9 °F 92% 30.05 in - ENE 16.1 mph - 0.06 in   Unknown
5:48 PM 30.9 °F 20.2 °F 28.9 °F 92% 30.06 in - East 15.0 mph 20.7 mph N/A   Unknown
6:48 PM 30.9 °F 21.2 °F 28.9 °F 92% 30.08 in - East 12.7 mph - N/A   Unknown
7:48 PM 30.9 °F 20.7 °F 28.9 °F 92% 30.05 in - East 13.8 mph 20.7 mph 0.01 in   Unknown
8:48 PM 30.0 °F 18.7 °F 28.0 °F 92% 30.04 in - ENE 16.1 mph - 0.02 in   Unknown
9:48 PM 30.9 °F 19.1 °F 28.0 °F 89% 30.02 in - East 18.4 mph 24.2 mph 0.01 in   Unknown
10:48 PM 30.9 °F 19.4 °F 28.0 °F 89% 30.00 in - ENE 17.3 mph - N/A   Unknown
11:48 PM 30.9 °F 18.7 °F 28.9 °F 92% 29.98 in - East 19.6 mph 27.6 mph N/A   Unknown